Tracking 18945 objects as of 21-Jan-2018
HD Live streaming from Space Station
objects crossing your sky now

OKEAN O

Track OKEAN O now!
10-day predictions
OKEAN O is classified as:


NORAD ID: 25860
Int'l Code: 1999-039A
Perigee: 646.3 km
Apogee: 648.6 km
Inclination: 98.2 °
Period: 97.5 minutes
Semi major axis: 7018 km
RCS: 19.8052 m2 (large)
Launch date: July 17, 1999
Source: Commonwealth of Independent States (former USSR) (CIS)
Launch site: TYURATAM MISSILE AND SPACE COMPLEX (TTMTR)
aabbcc
Your satellite tracking list
Your tracking list is empty




NASA's NSSDC Master Catalog

Two Line Element Set (TLE):
1 25860U 99039A   18020.54321445 +.00000031 +00000-0 +12034-4 0  9998
2 25860 098.2064 013.6405 0001577 108.2201 251.9180 14.76526984995804
Source of the keplerian elements: AFSPC